Lincoln, NE

6:37 AM CDT on June 27, 2017 (GMT -0500)
Lincoln Municipal

Weather History for KLNK - July, 2013

Change the Weather History Date:

Sunday, July 28, 2013

  Actual Average Record
Temperature  
Mean Temperature 64 °F 78 °F  
Max Temperature 80 °F 89 °F 106 °F (1940)
Min Temperature 47 °F 66 °F 47 °F (1994)
Degree Days  
Heating Degree Days 1 0  
Month to date heating degree days 2 0  
Since 1 June heating degree days 22 16  
Since 1 July heating degree days 2 0  
Cooling Degree Days 0 13  
Month to date cooling degree days 330 357  
Year to date cooling degree days 648 678  
Since 1 June cooling degree days 561 599  
Growing Degree Days 13 (Base 50)    
Moisture  
Dew Point 48 °F    
Average Humidity 62    
Maximum Humidity 93    
Minimum Humidity 30    
Precipitation  
Precipitation 0.00 in 0.10 in 1.97 in (1892)
Month to date precipitation 0.28 3.08  
Year to date precipitation 18.62 17.77  
Snow  
Snow 0.00 in 0.00 in - ()
Month to date snowfall 0.0 0.0  
Since 1 July snowfall 0.0 0.0  
Snow Depth 0.00 in    
Sea Level Pressure  
Sea Level Pressure 30.05 in    
Wind  
Wind Speed 3 mph (SW)    
Max Wind Speed 13 mph    
Max Gust Speed 21 mph    
Visibility 10 miles    
Events      
T = Trace of Precipitation, MM = Missing Value Source: NWS Daily Summary

Daily Weather History Graph

Daily Weather History Graph

Search for Another Location

Airport or City:

Trip Planner

Search our weather history database for the weather conditions in past years. The results will help you decide how hot, cold, wet, or windy it might be!

Date:

Astronomy

Jul. 28, 2013 Rise Set
Actual Time 6:19 AM CDT 8:46 PM CDT
Civil Twilight 5:48 AM CDT 9:17 PM CDT
Nautical Twilight 5:09 AM CDT 9:56 PM CDT
Astronomical Twilight 4:26 AM CDT 10:39 PM CDT
Moon No Moon Rise 1:06 PM CDT (7/28)
Length of Visible Light 15h 29m
Length of Day
14h 26m
Waning Gibbous, 60% of the Moon is Illuminated
Jul 28
Waning Gibbous
Jul 29
Last Quarter
Aug 6
New
Aug 14
First Quarter
Aug 20
Full

Hourly Weather History & Observations

Time (CDT) Temp. Dew Point Humidity Pressure Visibility Wind Dir Wind Speed Gust Speed Precip Events Conditions
12:54 AM 52.0 °F 48.0 °F 86% 30.06 in 10.0 mi North 3.5 mph - N/A   Clear
1:54 AM 51.1 °F 46.9 °F 86% 30.07 in 10.0 mi WNW 3.5 mph - N/A   Clear
2:54 AM 50.0 °F 46.9 °F 89% 30.07 in 10.0 mi North 4.6 mph - N/A   Clear
3:54 AM 51.1 °F 46.9 °F 86% 30.06 in 10.0 mi North 5.8 mph - N/A   Clear
4:54 AM 48.0 °F 45.0 °F 89% 30.06 in 10.0 mi North 4.6 mph - N/A   Clear
5:54 AM 46.9 °F 45.0 °F 93% 30.07 in 10.0 mi Calm Calm - N/A   Clear
6:54 AM 48.0 °F 45.0 °F 89% 30.08 in 10.0 mi Calm Calm - N/A   Clear
7:54 AM 52.0 °F 48.0 °F 86% 30.09 in 10.0 mi North 3.5 mph - N/A   Clear
8:54 AM 59.0 °F 48.9 °F 69% 30.09 in 10.0 mi Calm Calm - N/A   Clear
9:54 AM 66.0 °F 48.9 °F 54% 30.07 in 10.0 mi Calm Calm - N/A   Clear
10:54 AM 72.0 °F 45.0 °F 38% 30.06 in 10.0 mi East 5.8 mph - N/A   Clear
11:54 AM 72.0 °F 45.0 °F 38% 30.06 in 10.0 mi Variable 3.5 mph - N/A   Clear
12:54 PM 75.0 °F 45.0 °F 34% 30.05 in 10.0 mi Calm Calm - N/A   Clear
1:54 PM 75.9 °F 46.0 °F 35% 30.04 in 10.0 mi South 4.6 mph - N/A   Clear
2:54 PM 80.1 °F 46.0 °F 30% 30.03 in 10.0 mi Variable 3.5 mph - N/A   Clear
3:54 PM 79.0 °F 46.0 °F 31% 30.02 in 10.0 mi WSW 4.6 mph - N/A   Clear
4:54 PM 79.0 °F 46.0 °F 31% 30.01 in 10.0 mi Calm Calm - N/A   Clear
5:54 PM 78.1 °F 46.9 °F 33% 30.01 in 10.0 mi SSW 5.8 mph - N/A   Clear
6:54 PM 75.9 °F 48.0 °F 37% 30.01 in 10.0 mi SSW 4.6 mph - N/A   Mostly Cloudy
7:54 PM 75.0 °F 48.9 °F 40% 30.01 in 10.0 mi South 5.8 mph - N/A   Scattered Clouds
8:54 PM 68.0 °F 55.0 °F 63% 30.03 in 10.0 mi South 5.8 mph - N/A   Scattered Clouds
9:54 PM 68.0 °F 55.0 °F 63% 30.04 in 10.0 mi South 3.5 mph - N/A   Clear
10:54 PM 66.9 °F 55.0 °F 66% 30.05 in 10.0 mi Calm Calm - N/A   Clear
11:54 PM 64.9 °F 55.0 °F 70% 30.03 in 10.0 mi South 3.5 mph - N/A   Clear